Starlink 5754

operational
NORAD ID: 55579 Int'l Des: 2023-020 Owner: SPXS Country: US Constellation: starlink
LEOCIRCULAR

关于 Starlink 5754

正在加载描述...

实时位置

正在加载3D地球...

即将过境

高度历史

Altitude vs Time

uPlot chart will show altitude changes over time

两行轨道根数

1 55579U 23020L 25305.54300315 -.00001591 00000-0 -10269-3 0 9993
2 55579 43.0040 340.8742 0001165 271.1360 88.9349 15.02541776149648
Epoch: Nov 1, 2025 • Age: 14 hours

当前状态

高度 563.7 km
速度 7.58 km/s
星下点 -22.21°S, 138.45°W
发射日期 Feb 12, 2023
运行时间 2.7 years
类型 internet

技术详情

分类 Payload
质量 305.00 kg
干质量 290.00 kg
总质量 305.00 kg
长度 0.20 m
直径 2.80 m
跨度 9.00 m
形状 Box + pan
制造商 SPXS
平台类型 Starlink
阶段状态 In Orbit
所有者/国家 SPXS/US

大型星座

Loading constellations...